This is the latest recevied weather packets stored in our database for station/object G7GQA-4. If no packets are shown the sender has not sent any weather packets the latest 1 day(s).
| Time | Temp. | Humidity | Pressure | Rain* | Wind** | Luminosity | Snow |
|---|---|---|---|---|---|---|---|
| 1777999225 | 13.89° C | 58% | - | 0 mm | 1.34 m/s, 311° | 145 W/m² | - |
| 1777998625 | 13.89° C | 58% | - | 0 mm | 1.34 m/s, 294° | 165 W/m² | - |
| 1777998025 | 13.89° C | 57% | - | 0 mm | 1.79 m/s, 312° | 150 W/m² | - |
| 1777997426 | 13.89° C | 57% | - | 0 mm | 1.34 m/s, 314° | 157 W/m² | - |
| 1777996824 | 13.89° C | 56% | - | 0 mm | 1.79 m/s, 316° | 189 W/m² | - |
| 1777996224 | 13.89° C | 56% | - | 0 mm | 1.79 m/s, 310° | 258 W/m² | - |
| 1777995624 | 14.44° C | 57% | - | 0 mm | 1.79 m/s, 320° | 239 W/m² | - |
| 1777995024 | 14.44° C | 56% | - | 0 mm | 1.34 m/s, 308° | 298 W/m² | - |
| 1777994424 | 14.44° C | 56% | - | 0 mm | 1.34 m/s, 301° | 344 W/m² | - |
| 1777993824 | 14.44° C | 57% | - | 0 mm | 1.34 m/s, 309° | 367 W/m² | - |
| 1777993224 | 15° C | 54% | - | 0 mm | 1.79 m/s, 321° | 431 W/m² | - |
| 1777992623 | 15° C | 53% | - | 0 mm | 1.79 m/s, 310° | 549 W/m² | - |
| 1777992024 | 14.44° C | 54% | - | 0 mm | 1.34 m/s, 324° | 461 W/m² | - |
| 1777991423 | 15° C | 54% | - | 0 mm | 1.79 m/s, 313° | 525 W/m² | - |
| 1777990823 | 14.44° C | 55% | - | 0 mm | 1.34 m/s, 308° | 364 W/m² | - |
| 1777990223 | 14.44° C | 56% | - | 0 mm | 1.34 m/s, 356° | 316 W/m² | - |
| 1777989623 | 14.44° C | 57% | - | 0 mm | 1.79 m/s, 316° | 352 W/m² | - |
| 1777989023 | 13.89° C | 56% | - | 0 mm | 1.34 m/s, 320° | 229 W/m² | - |
| 1777988423 | 14.44° C | 56% | - | 0 mm | 1.34 m/s, 306° | 197 W/m² | - |
| 1777987832 | 15° C | 54% | - | 0 mm | 0.89 m/s, 313° | 306 W/m² | - |
| 1777987223 | 14.44° C | 52% | - | 0 mm | 1.79 m/s, 324° | 309 W/m² | - |
| 1777986623 | 15° C | 52% | - | 0 mm | 1.34 m/s, 314° | 826 W/m² | - |
| 1777986022 | 15.56° C | 51% | - | 0 mm | 1.79 m/s, 298° | 482 W/m² | - |
| 1777985422 | 15° C | 53% | - | 0 mm | 1.34 m/s, 320° | 894 W/m² | - |
| 1777984823 | 15° C | 52% | - | 0 mm | 1.34 m/s, 318° | 498 W/m² | - |
* Rain latest hour (hover to see other rain measurements)
** Current wind speed in m/s (hover to see current wind gust speed)